Regional Weather Roundup
Issued by NWS

Home | Current Version | Previous Version | Text Only | Print | Product List | Glossary Off
Versions: 1 2 3 4 5 6 7 8 9 10 11 12 13 14 15 16 17 18 19 20 21 22 23 24 25 26 27 28 29 30 31 32 33 34 35 36 37 38 39 40 41 42 43 44 45 46 47 48 49 50

844
ASUS45 KCYS 250010
RWRWY

WYOMING REGIONAL WEATHER ROUNDUP
NATIONAL WEATHER SERVICE CHEYENNE WY
600 PM MDT SAT JUN 24 2017

NOTE:  "FAIR" INDICATES FEW OR NO CLOUDS BELOW 12,000 FEET
WITH NO SIGNIFICANT WEATHER AND/OR OBSTRUCTIONS TO VISIBILITY.

WYZ001-250100-
YELLOWSTONE NATIONAL PARK

CITY           SKY/WX    TMP DP  RH WIND       PRES   REMARKS
LK YELLOWSTONE   N/A     62  35  36 VRB3      30.41F
6HR MIN TEMP:  56; 6HR MAX TEMP:  64;

W YELLOWSTONE  NOT AVBL

$$
WYZ002>013-054>058-071-098>099-250100-
NORTHERN WYOMING

CITY           SKY/WX    TMP DP  RH WIND       PRES   REMARKS
JACKSON        SUNNY     73  36  25 NW6       30.31S
CODY           FAIR      71  36  27 NE13      30.31S
GREYBULL       FAIR      76  30  18 N13G18    30.22S
6HR MIN TEMP:  72; 6HR MAX TEMP:  79;

WORLAND        FAIR      77  30  17 NE5       30.24F
6HR MIN TEMP:  69; 6HR MAX TEMP:  77;

SHERIDAN       FAIR      73  35  25 N5        30.29F
6HR MIN TEMP:  69; 6HR MAX TEMP:  75;

BUFFALO        FAIR      68  36  30 N8        30.34S
6HR MIN TEMP:  63; 6HR MAX TEMP:  70;

GILLETTE       FAIR      71  29  21 N14       30.30R
6HR MIN TEMP:  67; 6HR MAX TEMP:  74;

NEWCASTLE      FAIR      70  23  17 NW16G26   30.30S

$$
WYZ014>020-022>026-101>103-250100-
CENTRAL WYOMING

CITY           SKY/WX    TMP DP  RH WIND       PRES   REMARKS
BIG PINEY      FAIR      74  34  23 MISG      30.32F
6HR MIN TEMP:  65; 6HR MAX TEMP:  75;

PINEDALE       CLOUDY    70  34  26 N5G16     30.34F
DUBOIS         FAIR      64  32  29 SE13      30.34F
LANDER         FAIR      74  36  25 NE10      30.25F
6HR MIN TEMP:  63; 6HR MAX TEMP:  74;

RIVERTON       FAIR      73  31  21 NE5       30.27F
6HR MIN TEMP:  64; 6HR MAX TEMP:  74;

CASPER         FAIR      70  28  21 E7        30.29F
6HR MIN TEMP:  67; 6HR MAX TEMP:  75;

DOUGLAS        FAIR      72  33  24 NE5       30.31S
6HR MIN TEMP:  68; 6HR MAX TEMP:  73;


$$
WYZ021-027>030-104>119-250100-
SOUTHERN WYOMING

CITY           SKY/WX    TMP DP  RH WIND       PRES   REMARKS
EVANSTON       FAIR      76  34  21 W12       30.32F
6HR MIN TEMP:  69; 6HR MAX TEMP:  78;

KEMMERER         N/A     73  27  17 NW9G16    30.35S
FORT BRIDGER   FAIR      79  25  13 N6        30.34F
ROCK SPRINGS   FAIR      75  23  14 NE3       30.30F
6HR MIN TEMP:  67; 6HR MAX TEMP:  77;

DIXON          FAIR      77  24  14 N10       30.32S
RAWLINS        FAIR      73  26  17 E20       30.34F
6HR MIN TEMP:  64; 6HR MAX TEMP:  74;

SARATOGA       FAIR      72  23  16 N7        30.36S
LARAMIE        PTSUNNY   64  37  36 SE15      30.35F
6HR MIN TEMP:  63; 6HR MAX TEMP:  72;

CHEYENNE       PTSUNNY   67  37  33 VRB5      30.33S
6HR MIN TEMP:  64; 6HR MAX TEMP:  71;

TORRINGTON     CLOUDY    73  32  22 NE15      30.25S
6HR MIN TEMP:  69; 6HR MAX TEMP:  78;

PINE BLUFFS    FAIR      70  36  28 NE9       30.30S

$$




USA.gov is the U.S. government's official web portal to all federal, state and local government web resources and services.